Temperature
21 22 23 23 24 25 25 25 25 26 26 26 27 27 28 29 28 29 28 28 28 27 26 25 24 23 22 21 20 20 19 19 19 18 18 17 17 17 17 16 16 16 16 15
21 22 24 24 24 23 24 24 25 25 25 25 26 27 28 28 28 27 27 26 26 26 25 24 24 23 22 21 20 19 19 19 19 19 18 17 17 16 16 16 16 16 16 15
22 23 24 23 22 22 23 23 24 25 25 25 25 26 27 28 27 26 25 24 24 23 23 23 22 22 22 21 20 19 19 18 18 18 17 17 16 16 16 15 16 15 15 15
22 23 23 22 22 23 23 24 24 24 24 26 25 26 27 28 27 26 24 23 22 21 21 21 21 21 21 20 19 19 18 18 18 17 17 17 16 16 15 15 15 15 14 14
22 23 22 22 23 23 24 25 24 24 24 25 25 25 27 27 26 25 22 20 19 18 18 18 19 19 19 18 18 18 18 17 17 17 16 16 15 15 15 15 14 14 14 13
23 23 23 23 24 24 24 24 24 24 24 23 25 25 26 26 24 22 20 18 16 16 16 16 16 16 16 17 17 17 17 16 16 16 15 15 15 15 14 14 14 13 13 12
22 23 23 24 23 23 23 23 23 23 23 24 26 25 25 22 21 20 18 16 15 15 15 15 15 15 15 15 15 15 15 15 15 15 15 14 14 14 13 13 12 12 12 11
21 22 23 23 23 23 23 23 23 23 24 25 24 25 23 21 19 17 16 15 14 14 14 14 14 14 14 14 14 14 14 14 14 14 14 13 13 13 13 12 12 11 11 10
22 22 24 24 24 24 23 24 25 25 24 25 25 24 21 20 18 17 15 14 13 12 12 13 13 13 13 13 13 13 13 13 13 13 13 13 12 12 12 11 11 10 10 9
23 22 23 24 24 24 25 25 24 23 23 23 24 24 24 20 18 17 15 13 12 12 12 12 12 12 12 12 12 12 12 12 12 12 12 12 11 11 11 10 10 9 8 8
22 22 23 23 23 23 23 23 24 24 24 24 24 24 23 21 18 16 14 12 11 11 11 11 11 11 11 11 11 11 11 11 11 11 11 11 10 10 9 9 9 8 7 7
21 22 22 23 24 24 24 24 24 23 23 24 24 22 20 19 17 15 13 12 11 11 10 10 10 10 10 10 10 10 10 10 10 10 10 9 9 8 8 8 7 7 6 6
20 21 21 21 22 23 23 23 24 24 24 23 23 21 18 17 15 14 12 11 10 10 10 10 9 9 9 9 9 9 9 9 8 8 8 8 8 7 7 6 6 6 5 5
19 20 21 21 22 23 22 22 23 23 23 23 23 20 18 16 15 13 11 10 10 9 9 9 9 8 8 8 8 8 8 8 7 7 7 7 6 6 6 5 5 5 4 4
20 20 21 21 21 22 21 21 22 22 22 23 22 20 18 16 14 12 11 10 10 9 8 8 8 7 7 7 7 7 7 7 7 6 6 6 5 5 5 4 4 4 4 3
19 19 20 20 20 20 20 19 20 20 21 21 20 18 16 14 13 12 11 10 9 8 8 7 7 7 7 7 6 6 6 6 5 5 5 4 4 4 4 3 3 3 3 2
19 19 19 20 20 20 19 18 18 18 18 19 19 16 14 12 11 10 10 9 8 7 7 6 6 6 6 6 6 5 5 5 5 4 4 4 3 3 3 3 2 2 2 2
17 18 19 19 19 18 17 17 17 16 15 16 15 14 12 10 8 8 8 8 7 6 6 6 6 6 5 5 5 5 4 4 4 3 3 3 3 3 2 2 2 1 1 1
17 17 18 18 18 18 16 16 16 16 14 14 13 11 10 9 9 7 7 7 6 6 6 5 5 5 5 4 4 4 4 3 3 3 3 3 3 2 2 2 1 1 1 1
17 17 18 17 17 17 16 16 15 16 14 13 12 12 11 11 12 8 6 6 5 5 5 5 5 4 4 4 4 4 3 3 3 3 3 2 2 2 2 1 1 1 1 0
17 17 17 17 16 16 14 14 15 15 13 12 12 11 11 11 9 6 5 5 5 5 4 4 4 4 3 3 3 3 3 3 3 3 2 2 2 1 1 1 1 1 1 0
16 16 16 16 16 14 12 15 14 12 11 11 11 10 9 7 6 5 5 4 4 4 4 4 4 3 3 3 4 4 3 3 3 3 2 2 2 2 1 1 1 1 1 0
15 15 15 14 13 11 10 11 10 10 11 10 10 9 7 6 5 5 4 4 4 4 4 4 4 4 3 3 4 4 3 3 3 3 2 2 2 1 1 1 1 1 1 1
15 14 15 14 13 11 10 10 9 10 9 9 8 8 7 6 5 4 4 4 4 4 4 4 4 4 4 4 4 3 3 3 3 3 3 2 2 2 2 1 1 1 1 1
15 14 14 14 13 11 10 9 9 8 8 7 7 7 6 5 5 4 4 4 4 4 4 4 4 4 4 4 4 4 3 3 3 3 3 3 3 3 2 2 1 1 0 0
15 14 14 14 13 13 11 8 7 7 7 6 6 6 5 5 5 4 4 4 4 4 4 4 4 4 4 4 4 4 3 3 3 3 3 3 3 3 3 2 2 1 0 0
Wind_Speed
14 14 15 15 17 9 6 9 10 8 3 7 11 12 10 7 6 6 6 5 6 8 9 8 10 12 14 16 16 17 17 16 14 12 11 10 8 6 5 3 4 3 3 3
13 18 16 12 13 13 11 11 10 8 5 6 10 13 11 8 6 3 4 5 6 7 6 5 6 8 12 14 15 16 17 17 16 13 11 9 8 6 5 4 5 5 4 4
20 10 14 13 14 15 16 15 13 9 7 9 10 14 13 9 5 0 3 5 6 7 7 6 4 5 8 10 13 13 15 15 15 14 11 9 7 5 5 5 4 4 5 5
17 10 11 15 16 16 15 14 12 11 11 10 8 13 13 9 7 2 5 7 8 9 8 7 4 2 2 4 7 9 11 12 13 14 13 14 10 8 6 5 4 5 5 5
13 14 14 16 16 17 12 9 11 11 11 12 11 10 11 8 8 2 7 9 11 11 11 9 8 7 6 5 6 7 9 10 11 12 12 11 8 6 6 6 7 6 6 6
12 11 14 14 14 15 10 8 8 9 11 14 14 12 10 4 1 3 7 10 11 11 12 12 12 12 12 11 10 10 11 11 10 9 9 8 9 9 9 8 8 7 6 6
13 13 12 11 13 14 14 11 9 10 11 11 9 10 3 7 5 6 8 10 11 12 12 13 14 14 14 14 13 12 13 12 11 10 9 9 9 9 9 8 8 7 7 7
13 14 15 13 14 13 17 17 11 8 10 9 9 9 7 8 9 10 11 12 12 13 13 14 14 14 14 15 14 14 15 14 13 12 11 10 9 7 7 8 8 8 7 8
9 9 12 14 15 14 16 17 16 11 8 7 8 7 8 9 10 11 12 13 13 13 14 14 15 15 15 16 15 15 15 15 14 14 13 13 11 11 11 11 10 9 9 9
4 5 8 10 11 14 13 14 10 12 11 11 10 12 10 13 11 11 11 12 12 13 13 14 14 15 14 14 15 16 16 16 15 14 13 12 12 12 12 11 11 10 10 10
6 6 7 10 12 15 13 13 11 12 12 11 11 6 6 12 12 12 12 12 12 12 12 12 12 13 13 14 15 15 15 15 15 14 14 13 13 13 12 12 11 11 10 9
5 5 6 7 5 6 13 13 14 12 11 11 11 3 6 10 12 14 14 13 13 13 12 12 12 13 13 14 14 14 14 14 14 14 14 13 13 13 12 12 11 10 10 8
2 5 7 8 8 7 8 8 10 11 9 10 13 5 9 12 13 14 14 14 13 12 12 12 12 12 12 13 13 13 13 13 13 13 13 13 13 12 12 11 10 9 9 8
3 3 5 5 5 7 7 6 7 9 10 9 8 8 12 13 14 14 14 14 13 13 12 11 11 11 11 11 11 12 12 11 12 12 13 12 12 11 11 10 9 8 8 7
3 1 2 4 5 4 4 2 2 5 5 6 3 9 13 12 13 13 14 14 14 13 12 11 10 10 10 10 10 10 10 10 11 12 12 11 11 10 10 9 8 7 6 5
4 1 3 4 4 5 5 4 2 1 3 1 6 7 10 12 12 13 13 14 14 12 12 11 10 10 9 9 9 10 10 9 10 11 11 10 9 9 8 6 6 5 4 4
3 1 4 4 4 5 3 5 4 4 5 1 2 7 12 12 11 10 11 13 13 12 11 10 9 9 9 9 9 10 9 10 10 10 10 8 7 7 6 5 5 4 4 4
3 2 3 4 5 7 5 5 5 6 7 7 10 12 12 13 13 13 12 12 12 11 10 9 9 9 9 9 10 10 10 10 10 9 8 7 6 6 5 5 5 4 4 4
2 3 3 4 6 2 5 2 2 1 4 7 10 13 14 14 13 11 11 11 11 10 10 9 10 10 10 10 10 10 10 9 9 8 7 6 6 6 5 5 5 4 4 4
1 2 5 4 5 3 5 4 3 2 4 6 9 10 10 7 4 5 8 10 11 10 10 10 10 11 10 9 8 9 8 8 8 7 7 6 6 5 5 5 4 4 4 4
1 2 4 5 5 2 6 4 3 3 4 6 7 7 5 4 9 11 11 11 11 11 11 11 11 10 8 7 7 8 8 8 7 6 6 6 5 4 4 3 3 3 3 4
3 3 2 3 3 2 7 2 3 5 6 7 7 8 11 13 14 13 12 11 11 11 11 11 10 9 7 6 6 7 7 6 5 5 5 5 3 3 3 2 2 3 4 3
2 4 3 3 4 5 6 6 5 4 6 6 7 10 13 14 13 13 12 11 11 11 10 9 9 8 7 6 5 6 5 4 4 4 4 3 2 2 2 2 2 3 3 4
1 0 2 0 4 5 5 6 6 6 6 7 8 10 12 14 14 14 12 11 11 10 10 8 8 8 7 6 6 5 4 3 3 3 3 2 1 1 1 2 3 4 5 6
2 2 2 1 4 5 4 4 6 6 7 8 9 10 12 15 15 14 12 11 10 10 8 7 7 8 7 6 6 5 5 3 3 2 1 1 2 2 2 2 3 5 6 6
3 4 4 2 2 1 5 6 6 7 8 9 11 12 13 14 15 14 12 11 10 9 8 8 8 7 7 6 6 4 3 2 2 2 2 3 3 3 3 3 1 3 2 4
Wind_Direction
190 205 210 207 214 236 222 219 213 213 207 246 239 245 252 254 262 260 260 263 262 257 259 250 234 224 216 209 205 202 199 191 187 186 183 181 178 167 156 138 126 134 136 133
194 220 220 216 214 223 225 227 226 225 221 259 255 255 254 251 250 282 310 308 305 301 298 282 250 225 218 214 209 204 200 193 189 186 181 177 164 154 144 135 125 130 133 140
209 218 209 208 206 214 224 231 235 241 242 241 255 248 231 223 209 129 11 3 352 341 331 325 299 244 221 214 209 206 199 191 186 174 163 153 147 145 150 154 146 134 140 137
219 206 193 203 210 212 223 225 237 243 247 236 224 249 211 206 201 126 34 22 13 5 360 353 353 342 207 198 192 189 182 174 170 165 166 166 171 170 166 156 143 129 121 123
211 206 201 208 211 212 226 216 225 236 243 255 230 246 230 192 209 101 40 32 27 24 26 30 35 47 62 86 112 128 139 146 152 157 161 163 160 146 135 133 131 124 112 109
214 203 211 216 213 211 213 205 217 234 238 239 232 232 227 173 125 49 53 47 40 38 43 48 54 60 65 73 84 96 106 112 124 135 140 141 133 131 135 138 135 126 114 110
205 202 207 212 202 198 207 209 209 212 217 231 201 220 183 90 79 76 72 63 54 49 51 52 54 57 61 66 74 83 91 91 94 98 100 107 116 125 134 137 133 125 117 111
198 200 199 205 209 198 206 215 225 224 220 206 184 213 121 103 97 92 86 76 64 55 53 53 52 54 59 63 68 75 79 80 80 82 83 85 93 99 101 103 108 108 107 106
203 201 192 205 213 217 205 218 235 257 257 238 187 145 128 126 113 102 93 82 70 62 57 55 53 54 56 60 63 70 75 75 74 76 78 78 79 84 89 95 99 104 108 112
230 214 190 194 205 217 228 216 219 232 233 231 208 199 180 159 136 117 102 90 80 70 62 57 54 55 57 60 65 68 72 74 74 75 77 82 83 88 94 97 97 100 103 105
244 230 185 184 203 200 204 212 220 230 244 243 230 193 113 147 140 124 108 97 87 78 69 63 61 60 63 64 66 69 71 74 75 77 79 81 83 86 90 91 93 94 94 97
236 242 210 192 194 221 208 213 216 228 229 242 260 134 112 130 129 123 113 103 93 86 80 75 72 69 67 67 67 69 71 74 77 80 82 83 85 86 87 88 88 91 94 95
252 226 211 187 187 194 206 216 227 237 251 243 248 160 133 132 122 118 113 107 100 94 86 79 73 70 69 70 71 72 74 76 79 83 85 84 84 85 86 86 87 90 90 88
284 247 257 238 177 176 186 196 218 232 241 240 243 142 149 142 129 121 116 111 103 95 88 83 79 76 75 74 74 76 75 78 82 83 83 81 80 80 81 80 78 78 82 84
326 207 116 70 80 118 128 147 212 238 274 268 186 150 152 142 131 124 119 113 106 99 92 89 86 85 84 82 80 79 80 79 84 86 85 83 80 78 76 73 72 73 76 82
6 170 159 138 121 129 98 54 44 12 326 245 133 109 109 113 115 117 116 112 106 102 97 93 90 88 88 89 89 88 86 85 88 87 85 83 82 79 76 74 76 76 73 67
352 290 237 203 181 213 181 32 21 51 37 73 137 119 119 104 94 95 100 102 100 98 96 95 92 90 92 94 95 95 93 92 90 90 90 90 89 87 85 83 78 72 64 51
323 305 256 239 226 237 87 71 70 79 54 48 87 105 103 96 85 73 79 92 94 95 96 96 99 98 97 97 97 98 97 98 98 97 95 94 95 91 83 76 70 59 46 32
330 291 265 252 242 197 133 109 18 45 80 76 105 110 113 115 99 72 68 83 92 95 97 99 102 103 101 102 104 105 105 106 104 100 96 92 89 86 78 71 61 46 32 21
82 271 263 254 257 249 92 61 350 263 130 108 119 126 137 158 145 105 96 95 97 99 101 104 104 103 103 105 111 109 107 106 100 94 90 87 81 72 67 61 48 42 26 15
284 265 261 261 254 92 49 347 283 268 92 115 119 124 122 71 87 114 111 104 105 107 108 109 108 105 106 113 113 108 105 98 94 94 91 85 78 71 64 60 44 25 13 10
321 305 290 285 262 86 18 3 34 65 91 105 107 102 100 104 109 114 115 115 115 113 111 110 110 108 111 114 111 105 98 97 94 94 91 85 68 50 55 43 24 5 353 346
337 357 350 11 40 72 53 68 78 86 99 99 107 115 121 123 123 122 120 118 117 115 114 116 114 111 107 101 94 94 94 92 90 90 83 78 78 58 22 356 352 344 348 350
151 342 295 111 112 108 96 92 84 78 89 97 112 124 129 128 129 127 124 121 121 120 119 119 115 108 99 92 83 80 83 83 83 80 72 57 28 24 21 339 354 360 3 360
299 257 266 240 133 141 136 109 99 97 102 108 113 121 128 131 131 130 127 127 125 120 116 111 102 99 98 93 86 81 81 81 77 68 42 359 3 10 344 0 23 7 34 24
249 264 276 329 106 169 125 124 120 119 115 118 120 121 127 130 130 129 128 128 126 122 116 109 105 101 98 96 88 78 67 44 3 350 350 347 351 355 344 356 98 127 50 126
Height
1499 1498 1495 1493 1494 1490 1491 1492 1493 1490 1491 1493 1490 1487 1484 1485 1487 1486 1487 1488 1490 1491 1493 1495 1497 1500 1502 1505 1507 1510 1514 1517 1520 1524 1527 1530 1534 1536 1538 1540 1542 1544 1545 1547
1497 1493 1488 1489 1492 1495 1496 1497 1495 1492 1492 1494 1490 1487 1483 1484 1486 1487 1488 1489 1489 1490 1491 1492 1493 1495 1497 1500 1502 1505 1508 1512 1515 1519 1522 1526 1529 1532 1534 1536 1537 1539 1540 1541
1488 1483 1485 1490 1494 1497 1496 1496 1493 1493 1490 1490 1492 1488 1482 1481 1485 1488 1489 1490 1490 1490 1490 1490 1491 1492 1493 1495 1498 1501 1504 1508 1511 1515 1518 1521 1525 1527 1529 1532 1534 1534 1535 1536
1483 1482 1486 1490 1490 1492 1493 1489 1491 1492 1494 1486 1488 1488 1476 1476 1481 1487 1489 1490 1490 1490 1489 1489 1489 1489 1490 1492 1495 1497 1500 1503 1507 1510 1514 1516 1520 1523 1525 1528 1529 1530 1531 1533
1480 1480 1484 1486 1484 1487 1485 1484 1488 1489 1490 1489 1486 1491 1473 1475 1480 1486 1491 1493 1493 1492 1491 1489 1489 1488 1489 1490 1492 1494 1497 1501 1504 1508 1512 1515 1518 1521 1523 1524 1526 1527 1528 1530
1474 1477 1479 1478 1479 1483 1483 1486 1488 1488 1486 1495 1483 1486 1478 1475 1485 1490 1494 1496 1496 1495 1493 1491 1490 1489 1489 1490 1491 1494 1497 1500 1504 1507 1511 1514 1517 1519 1520 1522 1523 1525 1526 1527
1476 1475 1475 1476 1478 1481 1483 1488 1493 1493 1491 1485 1473 1481 1477 1486 1491 1494 1497 1499 1499 1498 1496 1495 1493 1492 1492 1493 1494 1496 1498 1501 1505 1508 1511 1514 1516 1518 1520 1521 1523 1524 1525 1526
1476 1476 1471 1472 1473 1476 1479 1480 1485 1487 1482 1473 1476 1476 1481 1489 1495 1498 1500 1502 1502 1501 1500 1498 1498 1497 1497 1497 1498 1500 1502 1504 1507 1509 1512 1514 1516 1518 1520 1521 1522 1523 1524 1526
1467 1468 1464 1466 1468 1469 1473 1474 1467 1472 1471 1473 1469 1475 1486 1491 1496 1500 1502 1504 1505 1505 1504 1503 1502 1501 1502 1502 1503 1504 1506 1507 1510 1512 1514 1515 1517 1519 1520 1521 1523 1524 1525 1526
1463 1468 1462 1463 1466 1467 1465 1465 1471 1476 1483 1482 1473 1473 1474 1487 1495 1500 1504 1507 1508 1508 1508 1507 1507 1506 1507 1507 1508 1509 1510 1511 1513 1515 1516 1518 1519 1521 1522 1523 1524 1525 1527 1528
1464 1468 1465 1464 1466 1465 1469 1469 1469 1468 1465 1473 1476 1471 1472 1482 1493 1500 1505 1509 1511 1511 1511 1511 1512 1512 1512 1512 1513 1513 1514 1515 1517 1518 1519 1520 1522 1523 1524 1525 1526 1527 1528 1529
1467 1465 1464 1462 1460 1458 1460 1462 1466 1472 1471 1468 1467 1479 1482 1488 1495 1500 1506 1510 1513 1514 1515 1516 1516 1516 1516 1517 1517 1518 1519 1520 1521 1522 1522 1523 1524 1525 1526 1527 1527 1528 1529 1530
1469 1469 1471 1469 1468 1463 1462 1462 1461 1463 1463 1465 1468 1480 1487 1492 1498 1503 1507 1511 1514 1517 1518 1519 1519 1520 1520 1521 1521 1522 1523 1524 1525 1525 1525 1526 1527 1527 1528 1529 1529 1530 1530 1530
1473 1468 1467 1467 1460 1458 1464 1465 1464 1464 1463 1463 1463 1477 1487 1493 1500 1506 1510 1513 1516 1519 1520 1522 1522 1523 1523 1524 1525 1525 1526 1527 1527 1528 1528 1528 1529 1529 1530 1530 1531 1531 1531 1531
1472 1469 1467 1465 1463 1463 1467 1468 1466 1466 1463 1463 1465 1474 1486 1494 1501 1507 1511 1514 1518 1521 1523 1524 1525 1526 1527 1527 1528 1528 1529 1529 1530 1530 1530 1530 1531 1531 1531 1531 1531 1531 1531 1531
1475 1473 1471 1472 1470 1469 1473 1475 1473 1473 1471 1468 1472 1486 1493 1500 1505 1509 1513 1516 1519 1522 1525 1526 1527 1528 1529 1529 1530 1531 1531 1532 1532 1532 1532 1532 1533 1533 1533 1533 1532 1532 1532 1531
1475 1476 1474 1472 1472 1472 1477 1483 1481 1480 1480 1479 1480 1492 1500 1505 1509 1513 1516 1518 1521 1524 1526 1528 1529 1530 1530 1531 1532 1532 1533 1533 1533 1533 1534 1534 1535 1535 1535 1535 1534 1533 1533 1532
1482 1478 1475 1473 1478 1484 1489 1488 1488 1489 1492 1491 1493 1499 1505 1510 1515 1517 1519 1521 1524 1526 1527 1529 1530 1531 1532 1533 1534 1534 1535 1535 1535 1536 1536 1537 1537 1536 1536 1536 1535 1534 1533 1532
1485 1481 1477 1477 1477 1480 1489 1490 1490 1490 1496 1500 1502 1507 1510 1513 1516 1522 1524 1525 1527 1528 1529 1531 1532 1533 1534 1535 1536 1536 1537 1538 1538 1538 1538 1538 1538 1538 1538 1537 1536 1535 1534 1532
1484 1483 1480 1480 1484 1486 1492 1493 1494 1493 1498 1504 1506 1508 1511 1513 1514 1525 1527 1528 1529 1530 1532 1533 1534 1535 1536 1537 1538 1539 1540 1540 1540 1540 1540 1540 1539 1539 1538 1537 1536 1535 1534 1532
1484 1483 1483 1483 1484 1485 1496 1497 1496 1497 1504 1507 1508 1511 1513 1515 1518 1526 1528 1530 1532 1533 1534 1535 1536 1537 1538 1540 1541 1541 1542 1542 1542 1542 1541 1541 1540 1540 1539 1537 1536 1535 1534 1532
1489 1487 1487 1486 1488 1496 1502 1497 1500 1508 1509 1509 1511 1514 1516 1519 1523 1527 1530 1532 1534 1535 1536 1538 1539 1540 1541 1542 1543 1543 1543 1543 1543 1543 1542 1542 1541 1540 1539 1538 1536 1535 1533 1532
1492 1494 1491 1495 1501 1506 1506 1507 1510 1510 1511 1513 1514 1516 1519 1522 1525 1529 1531 1534 1536 1537 1539 1540 1542 1543 1543 1544 1545 1545 1545 1544 1544 1544 1543 1542 1541 1540 1539 1538 1537 1535 1533 1532
1495 1498 1496 1496 1501 1506 1508 1510 1511 1512 1513 1515 1516 1518 1521 1523 1527 1530 1533 1536 1538 1540 1542 1543 1544 1545 1546 1546 1546 1546 1546 1545 1545 1544 1543 1543 1541 1540 1539 1537 1536 1535 1533 1531
1496 1497 1496 1497 1503 1506 1509 1511 1513 1514 1515 1516 1518 1520 1522 1525 1528 1532 1535 1538 1540 1542 1544 1545 1546 1547 1547 1548 1548 1547 1546 1546 1545 1544 1544 1543 1541 1540 1538 1537 1535 1534 1532 1530
1496 1497 1497 1498 1502 1504 1508 1512 1513 1515 1516 1518 1519 1522 1525 1527 1530 1534 1537 1540 1542 1544 1546 1547 1548 1548 1549 1549 1549 1548 1548 1547 1546 1545 1543 1542 1541 1540 1538 1536 1534 1532 1531 1528